When you browse on this site, cookies collect data to enhance your experience and personalize the content and advertising you see.
Visit our Privacy Policy to learn more. By continuing to use the site, you agree to this use of cookies and data.
  • In Hungary
  • List of Countries
  • For 7 days
  • Water Temperature
  • Weather Map
  • News
  • Weather Widgets
  • user-avatar
    Login

    Hourly Weather Saraktash

    Today, 18 November, Monday

    Time Temperature Precipitation Wind Pressure Humidity
    00:00 -2°C° 0 mm 3 mps 759 mmHg 94%
    01:00 -2°C° 0 mm 2 mps 759 mmHg 95%
    02:00 -2°C° 0 mm 2 mps 759 mmHg 95%
    03:00 -1°C° 0 mm 2 mps 759 mmHg 94%
    04:00 -1°C° 0 mm 3 mps 759 mmHg 96%
    05:00 -1°C° 0 mm 3 mps 759 mmHg 96%
    06:00 -1°C° 0 mm 2 mps 759 mmHg 96%
    07:00 -1°C° 0 mm 2 mps 759 mmHg 97%
    08:00 -1°C° 0 mm 2 mps 759 mmHg 96%
    09:00 -1°C° 0 mm 2 mps 759 mmHg 95%
    10:00 0°C° 0 mm 3 mps 759 mmHg 94%
    11:00 0°C° 0 mm 3 mps 759 mmHg 94%
    12:00 0°C° 0 mm 3 mps 758 mmHg 94%
    13:00 0°C° 0 mm 3 mps 758 mmHg 93%
    14:00 0°C° 0 mm 3 mps 758 mmHg 95%
    15:00 0°C° 0 mm 3 mps 758 mmHg 96%
    16:00 -1°C° 0 mm 3 mps 757 mmHg 93%
    17:00 -1°C° 0.1 mm 2 mps 757 mmHg 94%
    18:00 -1°C° 0.1 mm 2 mps 757 mmHg 95%
    19:00 -1°C° 0.1 mm 2 mps 757 mmHg 97%
    20:00 -1°C° 0.1 mm 2 mps 756 mmHg 97%
    21:00 -1°C° 0.1 mm 2 mps 756 mmHg 97%
    22:00 -1°C° 0.1 mm 2 mps 756 mmHg 98%
    23:00 -1°C° 0.6 mm 2 mps 755 mmHg 98%

    Tomorrow, 19 November, Tuesday

    Time Temperature Precipitation Wind Pressure Humidity
    00:00 -1°C° 0.6 mm 2 mps 755 mmHg 98%
    01:00 -1°C° 0.6 mm 2 mps 754 mmHg 98%
    02:00 -1°C° 0.7 mm 2 mps 754 mmHg 98%
    03:00 -1°C° 0.7 mm 2 mps 754 mmHg 98%
    04:00 -1°C° 0.7 mm 2 mps 754 mmHg 98%
    05:00 -1°C° 0 mm 2 mps 754 mmHg 98%
    06:00 -1°C° 0 mm 2 mps 754 mmHg 98%
    07:00 +1°C° 0 mm 1 mps 754 mmHg 97%
    08:00 -2°C° 0 mm 3 mps 755 mmHg 93%
    09:00 -3°C° 0 mm 4 mps 755 mmHg 89%
    10:00 -4°C° 0 mm 6 mps 756 mmHg 84%
    11:00 -5°C° 0.1 mm 6 mps 756 mmHg 86%
    12:00 -8°C° 0.1 mm 6 mps 756 mmHg 87%
    13:00 -9°C° 0.1 mm 6 mps 756 mmHg 89%
    14:00 -10°C° 0.1 mm 6 mps 756 mmHg 88%
    15:00 -10°C° 0.1 mm 6 mps 757 mmHg 88%
    16:00 -11°C° 0.1 mm 6 mps 758 mmHg 87%
    17:00 -13°C° 0 mm 7 mps 758 mmHg 86%
    18:00 -14°C° 0 mm 7 mps 759 mmHg 85%
    19:00 -15°C° 0 mm 7 mps 759 mmHg 84%
    20:00 -15°C° 0 mm 7 mps 760 mmHg 83%
    21:00 -17°C° 0 mm 7 mps 760 mmHg 81%
    22:00 -18°C° 0 mm 7 mps 761 mmHg 79%
    23:00 -17°C° 0 mm 6 mps 762 mmHg 77%

    Day after tomorrow, 20 November, Wednesday

    Time Temperature Precipitation Wind Pressure Humidity
    00:00 -18°C° 0 mm 6 mps 762 mmHg 74%
    01:00 -20°C° 0 mm 6 mps 762 mmHg 72%
    02:00 -20°C° 0 mm 6 mps 763 mmHg 72%
    03:00 -21°C° 0 mm 6 mps 764 mmHg 72%
    04:00 -21°C° 0 mm 6 mps 764 mmHg 73%
    05:00 -22°C° 0 mm 6 mps 765 mmHg 73%
    06:00 -22°C° 0 mm 6 mps 765 mmHg 72%
    07:00 -22°C° 0 mm 6 mps 765 mmHg 72%
    08:00 -22°C° 0 mm 6 mps 766 mmHg 72%
    09:00 -21°C° 0 mm 5 mps 766 mmHg 72%
    10:00 -21°C° 0 mm 5 mps 767 mmHg 72%
    11:00 -20°C° 0 mm 5 mps 767 mmHg 71%
    12:00 -20°C° 0 mm 5 mps 767 mmHg 69%
    13:00 -19°C° 0 mm 5 mps 768 mmHg 68%
    14:00 -18°C° 0 mm 4 mps 768 mmHg 70%
    15:00 -18°C° 0 mm 4 mps 768 mmHg 71%
    16:00 -17°C° 0 mm 3 mps 768 mmHg 73%
    17:00 -17°C° 0 mm 3 mps 769 mmHg 75%
    18:00 -17°C° 0 mm 3 mps 769 mmHg 78%
    19:00 -16°C° 0 mm 2 mps 769 mmHg 80%
    20:00 -16°C° 0 mm 2 mps 770 mmHg 81%
    21:00 -16°C° 0 mm 2 mps 770 mmHg 81%
    22:00 -16°C° 0 mm 2 mps 770 mmHg 81%
    23:00 -16°C° 0 mm 2 mps 770 mmHg 81%

    21 November, Thursday

    Time Temperature Precipitation Wind Pressure Humidity
    00:00 -14°C° 0 mm 1 mps 771 mmHg 82%
    01:00 -14°C° 0 mm 1 mps 771 mmHg 82%
    02:00 -14°C° 0 mm 1 mps 771 mmHg 82%
    03:00 -14°C° 0 mm 1 mps 771 mmHg 82%
    04:00 -15°C° 0 mm 1 mps 771 mmHg 81%
    05:00 -14°C° 0 mm 1 mps 771 mmHg 81%
    06:00 -14°C° 0 mm 1 mps 771 mmHg 81%
    07:00 -14°C° 0 mm 1 mps 771 mmHg 80%
    08:00 -14°C° 0 mm 1 mps 771 mmHg 77%
    09:00 -13°C° 0 mm 1 mps 771 mmHg 73%
    10:00 -12°C° 0 mm 0 mps 771 mmHg 70%
    11:00 -11°C° 0 mm 1 mps 771 mmHg 69%
    12:00 -11°C° 0 mm 1 mps 771 mmHg 68%
    13:00 -10°C° 0 mm 1 mps 771 mmHg 67%
    14:00 -10°C° 0 mm 1 mps 770 mmHg 73%
    15:00 -10°C° 0 mm 1 mps 770 mmHg 79%
    16:00 -13°C° 0 mm 2 mps 770 mmHg 84%
    17:00 -13°C° 0 mm 2 mps 770 mmHg 86%
    18:00 -11°C° 0 mm 1 mps 770 mmHg 88%
    19:00 -12°C° 0 mm 1 mps 769 mmHg 90%
    20:00 -12°C° 0 mm 1 mps 769 mmHg 89%
    21:00 -12°C° 0 mm 1 mps 769 mmHg 89%
    22:00 -12°C° 0 mm 1 mps 769 mmHg 89%
    23:00 -12°C° 0 mm 1 mps 769 mmHg 88%

    22 November, Friday

    Time Temperature Precipitation Wind Pressure Humidity
    00:00 -14°C° 0 mm 2 mps 769 mmHg 88%
    01:00 -14°C° 0 mm 2 mps 769 mmHg 88%
    02:00 -14°C° 0 mm 2 mps 768 mmHg 87%
    03:00 -14°C° 0 mm 2 mps 768 mmHg 87%
    04:00 -14°C° 0 mm 2 mps 768 mmHg 86%
    05:00 -14°C° 0 mm 2 mps 768 mmHg 85%
    06:00 -14°C° 0 mm 2 mps 768 mmHg 84%
    07:00 -14°C° 0 mm 2 mps 768 mmHg 83%
    08:00 -13°C° 0 mm 2 mps 767 mmHg 80%
    09:00 -13°C° 0 mm 2 mps 767 mmHg 77%
    10:00 -12°C° 0 mm 2 mps 767 mmHg 74%
    11:00 -10°C° 0 mm 2 mps 767 mmHg 73%
    12:00 -9°C° 0 mm 2 mps 767 mmHg 71%
    13:00 -8°C° 0 mm 2 mps 767 mmHg 70%
    14:00 -9°C° 0 mm 2 mps 766 mmHg 74%
    15:00 -9°C° 0 mm 2 mps 766 mmHg 77%
    16:00 -10°C° 0 mm 2 mps 765 mmHg 81%
    17:00 -10°C° 0 mm 2 mps 765 mmHg 83%
    18:00 -12°C° 0 mm 2 mps 765 mmHg 84%
    19:00 -12°C° 0 mm 2 mps 765 mmHg 85%
    20:00 -12°C° 0 mm 2 mps 764 mmHg 85%
    21:00 -12°C° 0 mm 2 mps 764 mmHg 85%
    22:00 -12°C° 0 mm 2 mps 764 mmHg 85%
    23:00 -12°C° 0 mm 2 mps 763 mmHg 85%

    23 November, Saturday

    Time Temperature Precipitation Wind Pressure Humidity
    00:00 -12°C° 0 mm 2 mps 763 mmHg 84%
    01:00 -12°C° 0 mm 2 mps 763 mmHg 84%
    02:00 -12°C° 0 mm 2 mps 763 mmHg 84%
    03:00 -12°C° 0 mm 2 mps 762 mmHg 84%
    04:00 -12°C° 0 mm 2 mps 762 mmHg 84%
    05:00 -12°C° 0 mm 2 mps 762 mmHg 84%
    06:00 -12°C° 0 mm 2 mps 762 mmHg 84%
    07:00 -12°C° 0 mm 2 mps 761 mmHg 84%
    08:00 -10°C° 0 mm 2 mps 761 mmHg 83%
    09:00 -10°C° 0 mm 2 mps 761 mmHg 82%
    10:00 -9°C° 0 mm 2 mps 761 mmHg 82%
    11:00 -8°C° 0 mm 2 mps 761 mmHg 82%
    12:00 -7°C° 0 mm 2 mps 761 mmHg 82%
    13:00 -7°C° 0 mm 2 mps 761 mmHg 82%
    14:00 -7°C° 0 mm 2 mps 761 mmHg 85%
    15:00 -8°C° 0 mm 2 mps 761 mmHg 87%
    16:00 -7°C° 0 mm 1 mps 761 mmHg 90%
    17:00 -8°C° 0 mm 1 mps 761 mmHg 90%
    18:00 -8°C° 0 mm 1 mps 761 mmHg 91%
    19:00 -8°C° 0 mm 1 mps 761 mmHg 91%
    20:00 -8°C° 0 mm 1 mps 761 mmHg 91%
    21:00 -9°C° 0 mm 1 mps 761 mmHg 92%
    22:00 -9°C° 0 mm 1 mps 761 mmHg 92%
    23:00 -9°C° 0 mm 1 mps 761 mmHg 92%
    Show more